"Pseudo-MPEC" for C0MKZ55
Created 2023 Nov 25 10:22:02 UT using Find_Orb
Click here for an explanation of pseudo-MPECs
Astrometry: C0MKZ55* C2023 11 13.34302403 24 04.349+24 31 34.90 ~BD9M 21.47GVNEOCPV00 C0MKZ55 C2023 11 13.34854203 24 00.418+24 33 56.99 ~BD9M 21.32GVNEOCPV00 C0MKZ55 C2023 11 13.35404803 23 56.429+24 36 20.23 ~BD9M 20.45GVNEOCPV00 C0MKZ55 C2023 11 13.35954603 23 52.426+24 38 43.66 ~BD9M 21.11GVNEOCPV00 C0MKZ55 C2023 11 13.51212 03 22 10.57 +25 43 48.8 ~BH3M 20.3 GVNEOCPI52 C0MKZ55 C2023 11 13.51554 03 22 08.57 +25 45 15.6 ~BH3M 20.9 GVNEOCPI52 C0MKZ55 C2023 11 13.52242 03 22 04.46 +25 48 11.3 ~BH3M 20.3 GVNEOCPI52 Station data: (I52) Steward Observatory, Mt. Lemmon Station (N32.442544 W110.788920) US/Arizona. Observers T. A. Pruyne, B. M. Africano, E. J. Christensen, G. A. Farneth, D. C. Fuls, A. R. Gibbs, A. D. Grauer, H. Gröller, J. A. Johnson, R. A. Kowalski, S. M. Larson, G. J. Leonard, D. Rankin, R. L. Seaman, F. C. Shelly, K. W. Wierzchoś. 1.0-m prime focus + CCD. (V00) Kitt Peak-Bok (N31.963125 W111.600190) US/Arizona. Observers T. A. Pruyne, B. M. Africano, E. J. Christensen, G. A. Farneth, D. C. Fuls, A. R. Gibbs, A. D. Grauer, H. Gröller, J. A. Johnson, R. A. Kowalski, S. M. Larson, G. J. Leonard, D. Rankin, R. L. Seaman, F. C. Shelly, K. W. Wierzchoś. 2.25-m reflector + 4x4K mosaic CCD. Orbital elements: C0MKZ55 Perihelion 2024 Jan 17.47725 +/- 4.15 TT = 11:27:14 (JD 2460326.97725) Epoch 2023 Nov 13.0 TT = JDT 2460261.5 Earth MOID: 0.0155 AutoNEOCP M 299.53340293 +/- 4.0 (J2000 ecliptic) n 0.92347484 +/- 0.0041 Peri. 69.75904 +/- 5.5 a 1.04436586 +/- 0.00309 Node 49.66973 +/- 0.014 e 0.0846417 +/- 0.012 Incl. 6.93678 +/- 0.50 P 1.07/389.82d H 29.45 G 0.15 U 9.1 q 0.95596889 +/- 0.0142 Q 1.13276283 +/- 0.0112 From 7 observations 2023 Nov. 13 (4.3 hr); mean residual 0".45
Residuals in arcseconds: 231113 V00 .06+ .57+ 231113 V00 .77- .50+ 231113 I52 .55- .16+ 231113 V00 .56+ .70- 231113 I52 .14+ .08+ 231113 V00 .07+ .37- 231113 I52 .48+ .25- Ephemerides (geocentric): Date (UTC) HH RA Dec delta r elong mag " sig PA ---- -------- ------------ ------------ ------ ------ ----- --- -------- 2023 11 25 10 18 56 19.108 +71 40 59.77 .02690 0.9908 97.0 24.4 261' 52 2023 11 25 11 18 55 12.059 +71 36 19.39 .02697 0.9908 96.9 24.4 261' 51 2023 11 25 12 18 54 05.943 +71 31 39.22 .02705 0.9907 96.8 24.4 261' 51 2023 11 25 13 18 53 00.742 +71 26 59.29 .02713 0.9907 96.7 24.5 262' 51 2023 11 25 14 18 51 56.441 +71 22 19.61 .02721 0.9906 96.5 24.5 262' 51 2023 11 25 15 18 50 53.024 +71 17 40.23 .02729 0.9905 96.4 24.5 262' 50 2023 11 25 16 18 49 50.475 +71 13 01.16 .02737 0.9905 96.3 24.5 263' 50 2023 11 25 17 18 48 48.779 +71 08 22.44 .02745 0.9904 96.2 24.5 263' 50 2023 11 25 18 18 47 47.920 +71 03 44.09 .02752 0.9904 96.1 24.5 263' 50 2023 11 25 19 18 46 47.885 +70 59 06.12 .02760 0.9903 96.0 24.5 263' 49 2023 11 25 20 18 45 48.659 +70 54 28.58 .02768 0.9903 95.9 24.5 264' 49 2023 11 25 21 18 44 50.226 +70 49 51.47 .02776 0.9902 95.8 24.5 264' 49 2023 11 25 22 18 43 52.574 +70 45 14.82 .02784 0.9902 95.7 24.5 264' 49 2023 11 25 23 18 42 55.689 +70 40 38.64 .02792 0.9901 95.5 24.6 265' 48 2023 11 26 00 18 41 59.558 +70 36 02.97 .02800 0.9901 95.4 24.6 265' 48 2023 11 26 01 18 41 04.166 +70 31 27.81 .02808 0.9900 95.3 24.6 265' 48 2023 11 26 02 18 40 09.502 +70 26 53.19 .02816 .98999 95.2 24.6 266' 48 2023 11 26 03 18 39 15.553 +70 22 19.12 .02824 .98994 95.1 24.6 266' 48 2023 11 26 04 18 38 22.305 +70 17 45.62 .02832 .98989 95.0 24.6 266' 47 2023 11 26 05 18 37 29.748 +70 13 12.70 .02840 .98984 94.9 24.6 266' 47 2023 11 26 06 18 36 37.869 +70 08 40.39 .02848 .98979 94.8 24.6 267' 47 2023 11 26 07 18 35 46.656 +70 04 08.68 .02856 .98974 94.7 24.6 267' 47 2023 11 26 08 18 34 56.099 +69 59 37.61 .02864 .98969 94.6 24.6 267' 47 2023 11 26 09 18 34 06.185 +69 55 07.18 .02872 .98964 94.5 24.7 268' 46 2023 11 26 10 18 33 16.903 +69 50 37.40 .02880 .98959 94.4 24.7 268' 46 2023 11 26 11 18 32 28.244 +69 46 08.29 .02888 .98954 94.3 24.7 268' 46 2023 11 26 12 18 31 40.196 +69 41 39.85 .02896 .98949 94.2 24.7 268' 46 2023 11 26 13 18 30 52.749 +69 37 12.11 .02904 .98944 94.1 24.7 269' 46 2023 11 26 14 18 30 05.892 +69 32 45.07 .02912 .98939 94.0 24.7 269' 45 2023 11 26 15 18 29 19.617 +69 28 18.73 .02920 .98934 93.9 24.7 269' 45 2023 11 26 16 18 28 33.912 +69 23 53.11 .02928 .98929 93.8 24.7 269' 45 2023 11 26 17 18 27 48.769 +69 19 28.22 .02936 .98924 93.7 24.7 270' 45 2023 11 26 18 18 27 04.177 +69 15 04.07 .02944 .98919 93.6 24.7 270' 45 2023 11 26 19 18 26 20.128 +69 10 40.67 .02953 .98914 93.5 24.8 270' 44 2023 11 26 20 18 25 36.613 +69 06 18.01 .02961 .98909 93.4 24.8 270' 44 2023 11 26 21 18 24 53.623 +69 01 56.12 .02969 .98904 93.3 24.8 271' 44 2023 11 26 22 18 24 11.149 +68 57 34.99 .02977 .98899 93.2 24.8 271' 44 2023 11 26 23 18 23 29.182 +68 53 14.64 .02985 .98894 93.1 24.8 271' 44 2023 11 27 00 18 22 47.715 +68 48 55.07 .02993 .98889 93.0 24.8 271' 44 2023 11 27 01 18 22 06.739 +68 44 36.28 .03001 .98884 92.9 24.8 272' 43 2023 11 27 02 18 21 26.246 +68 40 18.28 .03009 .98879 92.8 24.8 272' 43 2023 11 27 03 18 20 46.228 +68 36 01.08 .03017 .98874 92.7 24.8 272' 43 2023 11 27 04 18 20 06.678 +68 31 44.68 .03026 .98869 92.6 24.8 272' 43 2023 11 27 05 18 19 27.587 +68 27 29.09 .03034 .98864 92.5 24.8 273' 43 2023 11 27 06 18 18 48.950 +68 23 14.31 .03042 .98859 92.5 24.9 273' 43 2023 11 27 07 18 18 10.757 +68 19 00.34 .03050 .98854 92.4 24.9 273' 43 2023 11 27 08 18 17 33.002 +68 14 47.19 .03058 .98849 92.3 24.9 273' 42 2023 11 27 09 18 16 55.679 +68 10 34.86 .03066 .98844 92.2 24.9 274' 42